Flag for Russia Weather past 2 weeks in Yakutsk, Russia

Now
-47 °F

Fog.


Feels Like: -47 °F
Forecast: -62 / -42 °F
Wind: No wind

Location: Jakutsk

Current Time: Dec 20, 2014 at 12:11:33 AM

Latest Report: Dec 19, 2014 at 11:30 PM


Visibility: 0 mi

Pressure: 30.30 "Hg

Humidity: 56%

Dew point: -56 °F

Location of YakutskLocation

Historic Weather in Yakutsk — Graph

°F

Yakutsk temperature yesterday

Maximum temperature yesterday: -45 °F (at 1:30 PM)
Minimum temperature yesterday: -51 °F (at 2:00 AM)
Average temperature yesterday: -48 °F

Past Weeks' High & Low Weather Summary

 TemperatureHumidityPressure
High-22 °F (Dec 6, 8:30 PM)75% (Dec 6, 6:00 PM)30.60 "Hg (Dec 6, 6:00 PM)
Low-56 °F (Dec 17, 10:30 AM)48% (Dec 17, 10:00 AM)30.21 "Hg (Dec 7, 3:30 AM)
Average-43 °F61%30.39 "Hg
* Reported Dec 4 11:00 PM — Dec 19 11:00 PM, Yakutsk, Weather by CustomWeather, © 2014

Note: Actual official high and low records may vary slightly from our data, if they occured in-between our weather recording intervals... More about our weather records

Advertising

Yakutsk weather history for previous 24 hours

 ConditionsComfort  
Time TempWeatherWind HumidityBarometerVisibility
11:00 PM
Dec 19
-47 °FFog.No wind56%30.30 "Hg0 mi
10:30 PM-47 °FFog.No wind56%30.33 "Hg0 mi
10:00 PM-49 °FFog.No wind63%30.33 "Hg0 mi
9:30 PM-47 °FFog.No wind56%30.33 "Hg0 mi
9:00 PM-47 °FFog.No wind56%30.33 "Hg0 mi
8:30 PM-47 °FFog.No wind56%30.33 "Hg0 mi
8:00 PM-47 °FFog.No wind56%30.33 "Hg0 mi
7:30 PM-47 °FFog.No wind56%30.33 "Hg0 mi
7:00 PM-47 °FFog.No wind56%30.33 "Hg0 mi
6:30 PM-47 °FFog.No wind56%30.33 "Hg0 mi
6:00 PM-47 °FFog.No wind56%30.33 "Hg0 mi
5:30 PM-47 °FFog.No wind56%30.33 "Hg0 mi
5:00 PM-47 °FFog.No wind56%30.33 "Hg0 mi
4:30 PM-45 °FFog.No wind57%30.33 "Hg0 mi
4:00 PM-45 °FFog.No wind57%30.33 "Hg0 mi
3:30 PM-45 °FFog.No wind64%30.33 "Hg0 mi
3:00 PM-45 °FFog.No wind64%30.30 "Hg0 mi
2:30 PM-45 °FFog.No wind57%30.30 "Hg0 mi
2:00 PM-45 °FFog.No wind57%30.30 "Hg0 mi
1:30 PM-45 °FFog.No wind57%30.30 "Hg0 mi
12:30 PM-47 °FFog.No wind63%30.30 "Hg0 mi
12:00 PM-47 °FFog.No wind56%30.33 "Hg0 mi
11:30 AM-47 °FFog.No wind56%30.30 "Hg0 mi
11:00 AM-49 °FFog.No wind63%30.30 "Hg0 mi
10:30 AM-49 °FFog.No wind56%30.33 "Hg0 mi
10:00 AM-49 °FFog.No wind56%30.33 "Hg0 mi
9:30 AM-49 °FFog.No wind56%30.33 "Hg0 mi
9:00 AM-49 °FFog.No wind56%30.33 "Hg0 mi
8:30 AM-49 °FFog.No wind56%30.33 "Hg0 mi
8:00 AM-49 °FFog.No wind56%30.33 "Hg0 mi
7:30 AM-49 °FFog.No wind56%30.33 "Hg0 mi
7:00 AM-51 °FFog.1 mph56%30.33 "Hg0 mi
6:30 AM-51 °FFog.No wind63%30.33 "Hg0 mi
6:00 AM-51 °FFog.No wind56%30.30 "Hg0 mi
5:30 AM-51 °FFog.No wind56%30.30 "Hg0 mi
5:00 AM-51 °FFog.No wind56%30.30 "Hg0 mi
4:30 AM-51 °FFog.No wind56%30.33 "Hg0 mi
4:00 AM-51 °FFog.1 mph56%30.33 "Hg0 mi
3:30 AM-51 °FFog.1 mph56%30.33 "Hg0 mi
3:00 AM-51 °FFog.1 mph56%30.33 "Hg0 mi
2:30 AM-51 °FFog.1 mph56%30.33 "Hg0 mi
2:00 AM-51 °FFog.1 mph63%30.33 "Hg0 mi
1:30 AM-49 °FFog.No wind56%30.33 "Hg0 mi
1:00 AM-49 °FFog.No wind56%30.33 "Hg0 mi
12:30 AM-49 °FFog.No wind56%30.33 "Hg0 mi
12:00 AM-49 °FFog.No wind56%30.33 "Hg0 mi
Weather by CustomWeather, © 2014

See weather overviewHow to use our weather pages